,,Stat5,,Stat1,,Stat2,,Stat3,,Stat4,,Wind1,,Wind1,
time,status,PA1M_AVG,status,PR1M_SUM,status,RH1M_AVG,status,SR1M_AVG,status,TA1M_AVG,status,W1dAve1m,status,W1sAve1m,
2003-03-31, 00:00:01,VALID,918.421,VALID,0,VALID,99.1432,VALID,-0.0169808,VALID,21.2395,VALID,12,VALID,0.260135,
2003-03-31, 00:01:00,VALID,918.421,VALID,0,VALID,99.1279,VALID,-0.0339617,VALID,21.2395,VALID,12,VALID,0.233553,
2003-03-31, 00:02:00,VALID,918.42,VALID,0,VALID,99.0313,VALID,0,VALID,21.1972,VALID,12,VALID,0.301866,
2003-03-31, 00:03:00,VALID,918.419,VALID,0,VALID,99.0389,VALID,-0.0169808,VALID,21.1907,VALID,13,VALID,0.304476,
2003-03-31, 00:04:00,VALID,918.403,VALID,0,VALID,99.0605,VALID,0,VALID,21.1808,VALID,14,VALID,0.168087,
2003-03-31, 00:05:00,VALID,918.385,VALID,0,VALID,99.0224,VALID,0,VALID,21.1681,VALID,39,VALID,0.389106,
2003-03-31, 00:06:00,VALID,918.387,VALID,0,VALID,98.9779,VALID,-0.0169808,VALID,21.149,VALID,57,VALID,0.517887,
2003-03-31, 00:07:00,VALID,918.362,VALID,0,VALID,99.0427,VALID,-0.0169808,VALID,21.1358,VALID,57,VALID,0.304487,
2003-03-31, 00:08:00,VALID,918.344,VALID,0,VALID,99.0783,VALID,0,VALID,21.1385,VALID,57,VALID,0.182617,
2003-03-31, 00:09:00,VALID,918.341,VALID,0,VALID,99.0529,VALID,0.0169808,VALID,21.1452,VALID,57,VALID,0.0714286,
2003-03-31, 00:10:00,VALID,918.32,VALID,0,VALID,99.0707,VALID,0,VALID,21.1417,VALID,57,VALID,0.0118243,
2003-03-31, 00:11:00,VALID,918.299,VALID,0,VALID,99.0008,VALID,-0.0509425,VALID,21.1428,VALID,57,VALID,0.0994945,
2003-03-31, 00:12:00,VALID,918.292,VALID,0,VALID,98.8825,VALID,-0.0339617,VALID,21.0964,VALID,57,VALID,0.360008,
2003-03-31, 00:13:00,VALID,918.292,VALID,0,VALID,98.8647,VALID,0,VALID,21.0805,VALID,57,VALID,0.382612,
2003-03-31, 00:14:00,VALID,918.28,VALID,0,VALID,98.9029,VALID,-0.0169808,VALID,21.0716,VALID,57,VALID,0.254856,
2003-03-31, 00:15:00,VALID,918.262,VALID,0,VALID,98.8825,VALID,-0.0169808,VALID,21.0517,VALID,57,VALID,0.346628,
2003-03-31, 00:16:00,VALID,918.254,VALID,0,VALID,98.8774,VALID,0,VALID,21.0355,VALID,57,VALID,0.392188,
2003-03-31, 00:17:00,VALID,918.244,VALID,0,VALID,98.9041,VALID,-0.0169808,VALID,21.0323,VALID,57,VALID,0.319912,
2003-03-31, 00:18:00,VALID,918.198,VALID,0,VALID,98.8507,VALID,-0.0169808,VALID,21.0191,VALID,57,VALID,0.251184,
2003-03-31, 00:19:00,VALID,918.174,VALID,0,VALID,98.8812,VALID,0,VALID,21.0226,VALID,57,VALID,0.184679,
2003-03-31, 00:20:00,VALID,918.163,VALID,0,VALID,98.8622,VALID,-0.0169808,VALID,21.0089,VALID,57,VALID,0.011102,
2003-03-31, 00:21:00,VALID,918.141,VALID,0,VALID,98.8863,VALID,0,VALID,21.0353,VALID,57,VALID,0,
2003-03-31, 00:22:00,VALID,918.123,VALID,0,VALID,98.8787,VALID,0,VALID,21.0385,VALID,57,VALID,0,
2003-03-31, 00:23:00,VALID,918.106,VALID,0,VALID,98.8927,VALID,-0.0169808,VALID,21.0617,VALID,57,VALID,0,
2003-03-31, 00:24:00,VALID,918.081,VALID,0,VALID,98.866,VALID,-0.0169808,VALID,21.0676,VALID,57,VALID,0.00105574,
2003-03-31, 00:25:00,VALID,918.062,VALID,0,VALID,98.9092,VALID,-0.0169808,VALID,21.1037,VALID,57,VALID,0,
2003-03-31, 00:26:00,VALID,918.072,VALID,0,VALID,98.9512,VALID,-0.0339617,VALID,21.1293,VALID,57,VALID,0,
2003-03-31, 00:27:00,VALID,918.053,VALID,0,VALID,99.0109,VALID,0,VALID,21.1681,VALID,57,VALID,0.0204327,
2003-03-31, 00:28:00,VALID,918.056,VALID,0,VALID,99.0313,VALID,0,VALID,21.2034,VALID,55,VALID,0.177576,
2003-03-31, 00:29:00,VALID,918.05,VALID,0,VALID,99.0326,VALID,-0.0339617,VALID,21.229,VALID,43,VALID,0.299548,
2003-03-31, 00:30:00,VALID,918.046,VALID,0,VALID,99.0084,VALID,-0.0169808,VALID,21.2519,VALID,36,VALID,0.446652,
2003-03-31, 00:31:00,VALID,918.032,VALID,0,VALID,98.9321,VALID,0,VALID,21.2454,VALID,25,VALID,0.367388,
2003-03-31, 00:32:00,VALID,918.021,VALID,0,VALID,98.9652,VALID,0,VALID,21.2584,VALID,20,VALID,0.174716,
2003-03-31, 00:33:00,VALID,918.007,VALID,0,VALID,98.9626,VALID,0,VALID,21.2684,VALID,20,VALID,0.0416667,
2003-03-31, 00:34:00,VALID,917.994,VALID,0,VALID,98.88,VALID,0,VALID,21.2586,VALID,20,VALID,0,
2003-03-31, 00:35:00,VALID,917.978,VALID,0,VALID,98.8316,VALID,0,VALID,21.2355,VALID,20,VALID,0.0228365,
2003-03-31, 00:36:00,VALID,917.964,VALID,0,VALID,98.7897,VALID,0,VALID,21.236,VALID,20,VALID,0.0933594,
2003-03-31, 00:37:00,VALID,917.936,VALID,0,VALID,98.7375,VALID,0,VALID,21.2161,VALID,20,VALID,0.0321429,
2003-03-31, 00:38:00,VALID,917.945,VALID,0,VALID,98.6994,VALID,0,VALID,21.2166,VALID,20,VALID,0,
2003-03-31, 00:39:00,VALID,917.949,VALID,0,VALID,98.6867,VALID,-0.0169808,VALID,21.2153,VALID,20,VALID,0,
2003-03-31, 00:40:00,VALID,917.941,VALID,0,VALID,98.6231,VALID,0,VALID,21.2166,VALID,20,VALID,0.00892857,
2003-03-31, 00:41:00,VALID,917.943,VALID,0,VALID,98.5214,VALID,0,VALID,21.1964,VALID,9,VALID,0.0292468,
2003-03-31, 00:42:00,VALID,917.932,VALID,0,VALID,98.4464,VALID,-0.0169808,VALID,21.184,VALID,316,VALID,0.292652,
2003-03-31, 00:43:00,VALID,917.925,VALID,0,VALID,98.3662,VALID,0.0169808,VALID,21.1581,VALID,316,VALID,0.240543,
2003-03-31, 00:44:00,VALID,917.917,VALID,0,VALID,98.2671,VALID,-0.0169808,VALID,21.1193,VALID,316,VALID,0.0928571,
2003-03-31, 00:45:00,VALID,917.901,VALID,0,VALID,98.2823,VALID,0,VALID,21.1061,VALID,316,VALID,0,
2003-03-31, 00:46:00,VALID,917.894,VALID,0,VALID,98.2925,VALID,0,VALID,21.0964,VALID,316,VALID,0.00094697,
2003-03-31, 00:47:00,VALID,917.879,VALID,0,VALID,98.3217,VALID,0,VALID,21.0927,VALID,316,VALID,0,
2003-03-31, 00:48:00,VALID,917.871,VALID,0,VALID,98.3662,VALID,0,VALID,21.1067,VALID,316,VALID,0.000205592,
2003-03-31, 00:49:00,VALID,917.88,VALID,0,VALID,98.3828,VALID,-0.0339617,VALID,21.1129,VALID,312,VALID,0.1873,
2003-03-31, 00:50:00,VALID,917.863,VALID,0,VALID,98.4044,VALID,-0.0169808,VALID,21.1059,VALID,311,VALID,0.0316406,
2003-03-31, 00:51:00,VALID,917.878,VALID,0,VALID,98.4794,VALID,-0.0169808,VALID,21.1425,VALID,311,VALID,0.000892857,
2003-03-31, 00:52:00,VALID,917.869,VALID,0,VALID,98.454,VALID,0,VALID,21.1188,VALID,311,VALID,0,
2003-03-31, 00:53:00,VALID,917.858,VALID,0,VALID,98.3968,VALID,-0.0169808,VALID,21.1029,VALID,311,VALID,0,
2003-03-31, 00:54:00,VALID,917.85,VALID,0,VALID,98.4235,VALID,0,VALID,21.1034,VALID,311,VALID,0.175,
2003-03-31, 00:55:00,VALID,917.852,VALID,0,VALID,98.4756,VALID,0,VALID,21.1032,VALID,311,VALID,0.116587,
2003-03-31, 00:56:00,VALID,917.843,VALID,0,VALID,98.529,VALID,-0.0169808,VALID,21.1226,VALID,311,VALID,0.151394,
2003-03-31, 00:57:00,VALID,917.826,VALID,0,VALID,98.5811,VALID,-0.0339617,VALID,21.1358,VALID,339,VALID,0.251028,
2003-03-31, 00:58:00,VALID,917.809,VALID,0,VALID,98.674,VALID,-0.0169808,VALID,21.1681,VALID,17,VALID,0.304018,
2003-03-31, 00:59:00,VALID,917.807,VALID,0,VALID,98.6295,VALID,-0.0169808,VALID,21.1549,VALID,17,VALID,0.278646,
2003-03-31, 01:00:00,VALID,917.813,VALID,0,VALID,98.6676,VALID,0,VALID,21.1614,VALID,17,VALID,0.351326,
2003-03-31, 01:01:00,VALID,917.809,VALID,0,VALID,98.6702,VALID,0,VALID,21.1447,VALID,17,VALID,0.290799,
2003-03-31, 01:02:00,VALID,917.809,VALID,0,VALID,98.7134,VALID,0.0169808,VALID,21.1713,VALID,18,VALID,0.373972,
2003-03-31, 01:03:00,VALID,917.797,VALID,0,VALID,98.7401,VALID,0,VALID,21.174,VALID,18,VALID,0.357372,
2003-03-31, 01:04:00,VALID,917.801,VALID,0,VALID,98.7223,VALID,-0.0169808,VALID,21.174,VALID,18,VALID,0.146094,
2003-03-31, 01:05:00,VALID,917.792,VALID,0,VALID,98.6511,VALID,0.0169808,VALID,21.1616,VALID,18,VALID,0.0551339,
2003-03-31, 01:06:00,VALID,917.773,VALID,0,VALID,98.674,VALID,0,VALID,21.1611,VALID,18,VALID,0.0939611,
2003-03-31, 01:07:00,VALID,917.765,VALID,0,VALID,98.6803,VALID,-0.0169808,VALID,21.1719,VALID,18,VALID,0.294347,
2003-03-31, 01:08:00,VALID,917.766,VALID,0,VALID,98.5989,VALID,-0.0339617,VALID,21.1522,VALID,18,VALID,0.0553571,
2003-03-31, 01:09:00,VALID,917.758,VALID,0,VALID,98.5494,VALID,-0.0339617,VALID,21.1331,VALID,18,VALID,0,
2003-03-31, 01:10:00,VALID,917.748,VALID,0,VALID,98.543,VALID,-0.0849042,VALID,21.1266,VALID,18,VALID,0,
2003-03-31, 01:11:00,VALID,917.743,VALID,0,VALID,98.5697,VALID,-0.0849042,VALID,21.1333,VALID,18,VALID,0,
2003-03-31, 01:12:00,VALID,917.725,VALID,0,VALID,98.6053,VALID,-0.0679233,VALID,21.156,VALID,18,VALID,0.120536,
2003-03-31, 01:13:00,VALID,917.724,VALID,0,VALID,98.6638,VALID,-0.0509425,VALID,21.1754,VALID,18,VALID,0.121595,
2003-03-31, 01:14:00,VALID,917.709,VALID,0,VALID,98.674,VALID,-0.0339617,VALID,21.1945,VALID,17,VALID,0.277225,
2003-03-31, 01:15:00,VALID,917.701,VALID,0,VALID,98.5506,VALID,0,VALID,21.1619,VALID,16,VALID,0.248698,
2003-03-31, 01:16:00,VALID,917.693,VALID,0,VALID,98.4998,VALID,-0.0509425,VALID,21.1457,VALID,16,VALID,0.00411184,
2003-03-31, 01:17:00,VALID,917.667,VALID,0,VALID,98.4807,VALID,-0.0169808,VALID,21.1293,VALID,16,VALID,0.0344551,
2003-03-31, 01:18:00,VALID,917.65,VALID,0,VALID,98.5315,VALID,-0.0509425,VALID,21.139,VALID,16,VALID,0,
2003-03-31, 01:19:00,VALID,917.639,VALID,0,VALID,98.5773,VALID,-0.0169808,VALID,21.1686,VALID,16,VALID,0,
2003-03-31, 01:20:00,VALID,917.622,VALID,0,VALID,98.5646,VALID,0,VALID,21.1587,VALID,16,VALID,0,
2003-03-31, 01:21:00,VALID,917.608,VALID,0,VALID,98.6002,VALID,-0.0169808,VALID,21.188,VALID,16,VALID,0.0914522,
2003-03-31, 01:22:00,VALID,917.598,VALID,0,VALID,98.7159,VALID,-0.0679233,VALID,21.2104,VALID,16,VALID,0.0669643,
2003-03-31, 01:23:00,VALID,917.594,VALID,0,VALID,98.7337,VALID,-0.0679233,VALID,21.233,VALID,16,VALID,0,
2003-03-31, 01:24:00,VALID,917.586,VALID,0,VALID,98.7566,VALID,-0.0169808,VALID,21.2428,VALID,16,VALID,0.00633446,
2003-03-31, 01:25:00,VALID,917.584,VALID,0,VALID,98.735,VALID,-0.0509425,VALID,21.2525,VALID,16,VALID,0.0415296,
2003-03-31, 01:26:00,VALID,917.575,VALID,0,VALID,98.7261,VALID,-0.0509425,VALID,21.2557,VALID,16,VALID,0.356473,
2003-03-31, 01:27:00,VALID,917.551,VALID,0,VALID,98.7337,VALID,-0.0169808,VALID,21.2392,VALID,16,VALID,0.308694,
2003-03-31, 01:28:00,VALID,917.528,VALID,0,VALID,98.6854,VALID,-0.0169808,VALID,21.243,VALID,16,VALID,0.320076,
2003-03-31, 01:29:00,VALID,917.505,VALID,0,VALID,98.6791,VALID,-0.0679233,VALID,21.2169,VALID,16,VALID,0.32921,
2003-03-31, 01:30:00,VALID,917.486,VALID,0,VALID,98.7922,VALID,-0.0509425,VALID,21.2228,VALID,16,VALID,0.252262,
2003-03-31, 01:31:00,VALID,917.478,VALID,0,VALID,98.8024,VALID,-0.0509425,VALID,21.2498,VALID,16,VALID,0.282252,
2003-03-31, 01:32:00,VALID,917.47,VALID,0,VALID,98.7617,VALID,-0.0679233,VALID,21.236,VALID,16,VALID,0.173047,
2003-03-31, 01:33:00,VALID,917.463,VALID,0,VALID,98.7185,VALID,-0.0339617,VALID,21.2072,VALID,16,VALID,0.00669643,
2003-03-31, 01:34:00,VALID,917.447,VALID,0,VALID,98.735,VALID,-0.0339617,VALID,21.2074,VALID,15,VALID,0.116132,
2003-03-31, 01:35:00,VALID,917.431,VALID,0,VALID,98.7401,VALID,-0.0679233,VALID,21.191,VALID,14,VALID,0.0261949,
2003-03-31, 01:36:00,VALID,917.415,VALID,0,VALID,98.7058,VALID,-0.0339617,VALID,21.1878,VALID,14,VALID,0,
2003-03-31, 01:37:00,VALID,917.404,VALID,0,VALID,98.674,VALID,-0.0509425,VALID,21.1713,VALID,14,VALID,0.000200321,
2003-03-31, 01:38:00,VALID,917.379,VALID,0,VALID,98.7159,VALID,0.0679233,VALID,21.1695,VALID,14,VALID,0.150127,
2003-03-31, 01:39:00,VALID,917.354,VALID,0,VALID,98.7554,VALID,0.101885,VALID,21.1727,VALID,15,VALID,0.392475,
2003-03-31, 01:40:00,VALID,917.34,VALID,0,VALID,98.8062,VALID,0.101885,VALID,21.1924,VALID,15,VALID,0.349107,
2003-03-31, 01:41:00,VALID,917.316,VALID,0,VALID,98.8316,VALID,0.0849042,VALID,21.2056,VALID,15,VALID,0.518429,
2003-03-31, 01:42:00,VALID,917.286,VALID,0,VALID,98.8266,VALID,0.0679233,VALID,21.2021,VALID,15,VALID,0.523201,
2003-03-31, 01:43:00,VALID,917.263,VALID,0,VALID,98.7795,VALID,0.0679233,VALID,21.2053,VALID,15,VALID,0.654948,
2003-03-31, 01:44:00,VALID,917.232,VALID,0,VALID,98.7782,VALID,0.0849042,VALID,21.2021,VALID,15,VALID,0.605058,
2003-03-31, 01:45:00,VALID,917.218,VALID,0,VALID,98.777,VALID,0.101885,VALID,21.1921,VALID,15,VALID,0.39403,
2003-03-31, 01:46:00,VALID,917.189,VALID,0,VALID,98.7439,VALID,0.0849042,VALID,21.1994,VALID,15,VALID,0.436523,
2003-03-31, 01:47:00,VALID,917.173,VALID,0,VALID,98.7172,VALID,0.0849042,VALID,21.1891,VALID,15,VALID,0.505804,
2003-03-31, 01:48:00,VALID,917.141,VALID,0,VALID,98.7274,VALID,0.0849042,VALID,21.1765,VALID,15,VALID,0.398226,
2003-03-31, 01:49:00,VALID,917.127,VALID,0,VALID,98.791,VALID,0.0679233,VALID,21.1986,VALID,19,VALID,0.524357,
2003-03-31, 01:50:00,VALID,917.096,VALID,0,VALID,98.749,VALID,0.101885,VALID,21.2088,VALID,20,VALID,0.551339,
2003-03-31, 01:51:00,VALID,917.069,VALID,0,VALID,98.66,VALID,0.0509425,VALID,21.1732,VALID,20,VALID,0.480569,
2003-03-31, 01:52:00,VALID,917.04,VALID,0,VALID,98.6689,VALID,0.0679233,VALID,21.1536,VALID,20,VALID,0.364231,
2003-03-31, 01:53:00,VALID,917.003,VALID,0,VALID,98.6918,VALID,0.0849042,VALID,21.1573,VALID,27,VALID,0.594778,
2003-03-31, 01:54:00,VALID,916.979,VALID,0,VALID,98.5748,VALID,0.0849042,VALID,21.1175,VALID,23,VALID,0.76875,
2003-03-31, 01:55:00,VALID,916.947,VALID,0,VALID,98.5405,VALID,0.0849042,VALID,21.0949,VALID,24,VALID,0.857973,
2003-03-31, 01:56:00,VALID,916.927,VALID,0,VALID,98.5099,VALID,0.0679233,VALID,21.0862,VALID,25,VALID,0.62642,
2003-03-31, 01:57:00,VALID,916.913,VALID,0,VALID,98.5265,VALID,0.0509425,VALID,21.0598,VALID,29,VALID,0.534288,
2003-03-31, 01:58:00,VALID,916.896,VALID,0,VALID,98.632,VALID,0.0509425,VALID,21.0665,VALID,38,VALID,0.540296,
2003-03-31, 01:59:00,VALID,916.873,VALID,0,VALID,98.6562,VALID,0.0339617,VALID,21.0797,VALID,35,VALID,0.591346,
2003-03-31, 02:00:00,VALID,916.847,VALID,0,VALID,98.571,VALID,0.0339617,VALID,21.0471,VALID,28,VALID,0.439063,
2003-03-31, 02:01:00,VALID,916.835,VALID,0,VALID,98.6307,VALID,0.0509425,VALID,21.0474,VALID,28,VALID,0.106696,
2003-03-31, 02:02:00,VALID,916.806,VALID,0,VALID,98.6167,VALID,0.0169808,VALID,21.0439,VALID,28,VALID,0,
2003-03-31, 02:03:00,VALID,916.792,VALID,0,VALID,98.6511,VALID,0.0509425,VALID,21.0603,VALID,28,VALID,0,
2003-03-31, 02:04:00,VALID,916.788,VALID,0,VALID,98.7134,VALID,0.0339617,VALID,21.0795,VALID,28,VALID,0,
2003-03-31, 02:05:00,VALID,916.783,VALID,0,VALID,98.6409,VALID,0.0509425,VALID,21.0762,VALID,28,VALID,0,
2003-03-31, 02:06:00,VALID,916.754,VALID,0,VALID,98.5748,VALID,0.0509425,VALID,21.0603,VALID,49,VALID,0.320735,
2003-03-31, 02:07:00,VALID,916.738,VALID,0,VALID,98.501,VALID,0,VALID,21.0514,VALID,67,VALID,0.476768,
2003-03-31, 02:08:00,VALID,916.725,VALID,0,VALID,98.5315,VALID,-0.0509425,VALID,21.0291,VALID,59,VALID,0.49308,
2003-03-31, 02:09:00,VALID,916.716,VALID,0,VALID,98.454,VALID,-0.0339617,VALID,21.0366,VALID,63,VALID,0.513622,
2003-03-31, 02:10:00,VALID,916.691,VALID,0,VALID,98.3777,VALID,-0.0509425,VALID,20.994,VALID,72,VALID,0.50947,
2003-03-31, 02:11:00,VALID,916.683,VALID,0,VALID,98.3586,VALID,-0.0339617,VALID,20.9746,VALID,84,VALID,0.506293,
2003-03-31, 02:12:00,VALID,916.656,VALID,0,VALID,98.4336,VALID,-0.0509425,VALID,20.9585,VALID,89,VALID,0.329975,
2003-03-31, 02:13:00,VALID,916.638,VALID,0,VALID,98.4286,VALID,-0.0169808,VALID,20.9482,VALID,89,VALID,0.452925,
2003-03-31, 02:14:00,VALID,916.621,VALID,0,VALID,98.4616,VALID,0,VALID,20.942,VALID,89,VALID,0.264258,
2003-03-31, 02:15:00,VALID,916.596,VALID,0,VALID,98.5252,VALID,0,VALID,20.9261,VALID,89,VALID,0.0982143,
2003-03-31, 02:16:01,VALID,916.586,VALID,0,VALID,98.571,VALID,-0.0509425,VALID,20.9229,VALID,88,VALID,0.212204,
2003-03-31, 02:17:00,VALID,916.568,VALID,0,VALID,98.5697,VALID,0,VALID,20.9,VALID,88,VALID,0.197381,
2003-03-31, 02:18:00,VALID,916.561,VALID,0,VALID,98.5824,VALID,0,VALID,20.8938,VALID,88,VALID,0.0133929,
2003-03-31, 02:19:00,VALID,916.553,VALID,0,VALID,98.6282,VALID,-0.0339617,VALID,20.9005,VALID,88,VALID,0.120192,
2003-03-31, 02:20:00,VALID,916.538,VALID,0,VALID,98.6435,VALID,-0.0169808,VALID,20.907,VALID,88,VALID,0.15625,
2003-03-31, 02:21:00,VALID,916.547,VALID,0,VALID,98.6218,VALID,-0.0169808,VALID,20.897,VALID,88,VALID,0,
2003-03-31, 02:22:00,VALID,916.527,VALID,0,VALID,98.6384,VALID,-0.0169808,VALID,20.8973,VALID,88,VALID,0,
2003-03-31, 02:23:00,VALID,916.525,VALID,0,VALID,98.6447,VALID,-0.0169808,VALID,20.9005,VALID,88,VALID,0,
2003-03-31, 02:24:00,VALID,916.537,VALID,0,VALID,98.6752,VALID,-0.0169808,VALID,20.9035,VALID,88,VALID,0,
2003-03-31, 02:25:00,VALID,916.535,VALID,0,VALID,98.7388,VALID,0,VALID,20.9199,VALID,88,VALID,0,
2003-03-31, 02:26:00,VALID,916.523,VALID,0,VALID,98.7503,VALID,0,VALID,20.9358,VALID,88,VALID,0.0988898,
2003-03-31, 02:27:01,VALID,916.518,VALID,0,VALID,98.6867,VALID,0,VALID,20.9455,VALID,88,VALID,0.196915,
2003-03-31, 02:28:00,VALID,916.502,VALID,0,VALID,98.6333,VALID,0,VALID,20.9291,VALID,88,VALID,0.37793,
2003-03-31, 02:29:00,VALID,916.511,VALID,0,VALID,98.632,VALID,0,VALID,20.9229,VALID,91,VALID,0.467411,
2003-03-31, 02:30:00,VALID,916.52,VALID,0,VALID,98.6473,VALID,-0.0169808,VALID,20.9102,VALID,93,VALID,0.317145,
2003-03-31, 02:31:00,VALID,916.524,VALID,0,VALID,98.6854,VALID,0.0169808,VALID,20.9003,VALID,95,VALID,0.271829,
2003-03-31, 02:32:00,VALID,916.529,VALID,0,VALID,98.7935,VALID,0,VALID,20.9073,VALID,98,VALID,0.232143,
2003-03-31, 02:33:00,VALID,916.54,VALID,0,VALID,98.838,VALID,0.0169808,VALID,20.9164,VALID,98,VALID,0.204127,
2003-03-31, 02:34:00,VALID,916.536,VALID,0,VALID,98.894,VALID,0,VALID,20.9294,VALID,98,VALID,0.0230152,
2003-03-31, 02:35:01,VALID,916.545,VALID,0,VALID,98.9359,VALID,0,VALID,20.9458,VALID,89,VALID,0.134046,
2003-03-31, 02:36:00,VALID,916.555,VALID,0,VALID,98.8253,VALID,0.0339617,VALID,20.9326,VALID,86,VALID,0.0658482,
2003-03-31, 02:37:00,VALID,916.559,VALID,0,VALID,98.7744,VALID,-0.0169808,VALID,20.9137,VALID,86,VALID,0.225962,
2003-03-31, 02:38:00,VALID,916.55,VALID,0,VALID,98.7744,VALID,0.0169808,VALID,20.8935,VALID,86,VALID,0.357244,
2003-03-31, 02:39:00,VALID,916.547,VALID,0,VALID,98.7782,VALID,0.0169808,VALID,20.9035,VALID,86,VALID,0.259549,
2003-03-31, 02:40:00,VALID,916.554,VALID,0,VALID,98.7973,VALID,0.0679233,VALID,20.9102,VALID,86,VALID,0.0838816,
2003-03-31, 02:41:00,VALID,916.538,VALID,0,VALID,98.7922,VALID,0.0339617,VALID,20.907,VALID,86,VALID,0,
2003-03-31, 02:42:00,VALID,916.539,VALID,0,VALID,98.8024,VALID,0.0339617,VALID,20.91,VALID,86,VALID,0,
2003-03-31, 02:43:00,VALID,916.553,VALID,0,VALID,98.8406,VALID,0.0849042,VALID,20.9197,VALID,86,VALID,0.0540179,
2003-03-31, 02:44:00,VALID,916.547,VALID,0,VALID,98.8304,VALID,0.0339617,VALID,20.9388,VALID,86,VALID,0.058277,
2003-03-31, 02:45:01,VALID,916.555,VALID,0,VALID,98.7681,VALID,0.0339617,VALID,20.9197,VALID,82,VALID,0.231618,
2003-03-31, 02:46:00,VALID,916.558,VALID,0,VALID,98.7299,VALID,0.0339617,VALID,20.9197,VALID,82,VALID,0.215848,
2003-03-31, 02:47:00,VALID,916.547,VALID,0,VALID,98.7197,VALID,0.0849042,VALID,20.9135,VALID,82,VALID,0.00580929,
2003-03-31, 02:48:00,VALID,916.553,VALID,0,VALID,98.6778,VALID,0.0509425,VALID,20.9035,VALID,82,VALID,0.00760135,
2003-03-31, 02:49:00,VALID,916.547,VALID,0,VALID,98.6651,VALID,0.0339617,VALID,20.9164,VALID,42,VALID,0.0908717,
2003-03-31, 02:50:00,VALID,916.552,VALID,0,VALID,98.5964,VALID,0.0339617,VALID,20.9267,VALID,360,VALID,0.190625,
2003-03-31, 02:51:00,VALID,916.573,VALID,0,VALID,98.5087,VALID,0.0509425,VALID,20.9191,VALID,360,VALID,0.0186298,
2003-03-31, 02:52:00,VALID,916.572,VALID,0,VALID,98.4578,VALID,0.0509425,VALID,20.9226,VALID,360,VALID,0,
2003-03-31, 02:53:00,VALID,916.564,VALID,0,VALID,98.4514,VALID,0.0339617,VALID,20.9361,VALID,360,VALID,0,
2003-03-31, 02:54:01,VALID,916.566,VALID,0,VALID,98.3904,VALID,0,VALID,20.9388,VALID,360,VALID,0,
2003-03-31, 02:55:00,VALID,916.547,VALID,0,VALID,98.3815,VALID,0.0169808,VALID,20.9523,VALID,360,VALID,0,
2003-03-31, 02:56:00,VALID,916.549,VALID,0,VALID,98.4018,VALID,0.0509425,VALID,20.969,VALID,360,VALID,0,
2003-03-31, 02:57:00,VALID,916.533,VALID,0,VALID,98.3561,VALID,0.0339617,VALID,20.9843,VALID,360,VALID,0,
2003-03-31, 02:58:00,VALID,916.545,VALID,0,VALID,98.3306,VALID,0.0679233,VALID,20.9816,VALID,360,VALID,0,
2003-03-31, 02:59:00,VALID,916.549,VALID,0,VALID,98.2709,VALID,0.0679233,VALID,20.9714,VALID,360,VALID,0,
2003-03-31, 03:00:00,VALID,916.547,VALID,0,VALID,98.2493,VALID,0.0339617,VALID,20.9687,VALID,360,VALID,0,
2003-03-31, 03:01:00,VALID,916.537,VALID,0,VALID,98.2378,VALID,0.0169808,VALID,20.9558,VALID,360,VALID,0.0166266,
2003-03-31, 03:02:00,VALID,916.513,VALID,0,VALID,98.1564,VALID,0.0169808,VALID,20.9358,VALID,11,VALID,0.354941,
2003-03-31, 03:03:00,VALID,916.49,VALID,0,VALID,98.1361,VALID,0.0169808,VALID,20.9234,VALID,23,VALID,0.396998,
2003-03-31, 03:04:00,VALID,916.475,VALID,0,VALID,98.1552,VALID,0.0169808,VALID,20.917,VALID,25,VALID,0.153348,
2003-03-31, 03:05:00,VALID,916.464,VALID,0,VALID,98.248,VALID,0,VALID,20.9229,VALID,25,VALID,0,
2003-03-31, 03:06:00,VALID,916.454,VALID,0,VALID,98.1653,VALID,0,VALID,20.8941,VALID,25,VALID,0,
2003-03-31, 03:07:00,VALID,916.445,VALID,0,VALID,98.159,VALID,0.0169808,VALID,20.8814,VALID,25,VALID,0,
2003-03-31, 03:08:00,VALID,916.424,VALID,0,VALID,98.1793,VALID,-0.0339617,VALID,20.8749,VALID,25,VALID,0,
2003-03-31, 03:09:00,VALID,916.428,VALID,0,VALID,98.2111,VALID,-0.0169808,VALID,20.8717,VALID,25,VALID,0,
2003-03-31, 03:10:01,VALID,916.42,VALID,0,VALID,98.1577,VALID,-0.0339617,VALID,20.8757,VALID,25,VALID,0,
2003-03-31, 03:11:00,VALID,916.415,VALID,0,VALID,98.1234,VALID,-0.0339617,VALID,20.845,VALID,25,VALID,0.256473,
2003-03-31, 03:12:00,VALID,916.422,VALID,0,VALID,98.1157,VALID,-0.0169808,VALID,20.8426,VALID,23,VALID,0.439823,
2003-03-31, 03:13:00,VALID,916.446,VALID,0,VALID,98.1221,VALID,0,VALID,20.8394,VALID,19,VALID,0.457261,
2003-03-31, 03:14:00,VALID,916.443,VALID,0,VALID,98.0661,VALID,0,VALID,20.8165,VALID,34,VALID,0.498437,
2003-03-31, 03:15:00,VALID,916.449,VALID,0,VALID,98.028,VALID,0.0169808,VALID,20.7968,VALID,35,VALID,0.533253,
2003-03-31, 03:16:00,VALID,916.435,VALID,0,VALID,98.0102,VALID,0,VALID,20.7744,VALID,35,VALID,0.575169,
2003-03-31, 03:17:00,VALID,916.436,VALID,0,VALID,97.953,VALID,-0.0169808,VALID,20.758,VALID,35,VALID,0.611842,
2003-03-31, 03:18:00,VALID,916.423,VALID,0,VALID,97.9504,VALID,-0.0169808,VALID,20.7389,VALID,34,VALID,0.614732,
2003-03-31, 03:19:00,VALID,916.435,VALID,0,VALID,98.0356,VALID,-0.0339617,VALID,20.7389,VALID,30,VALID,0.532252,
2003-03-31, 03:20:01,VALID,916.44,VALID,0,VALID,98.0878,VALID,-0.0169808,VALID,20.7324,VALID,30,VALID,0.38589,
2003-03-31, 03:21:00,VALID,916.454,VALID,0,VALID,98.103,VALID,0,VALID,20.7195,VALID,30,VALID,0.200738,
2003-03-31, 03:22:00,VALID,916.442,VALID,0,VALID,98.1081,VALID,0,VALID,20.7036,VALID,30,VALID,0.199836,
2003-03-31, 03:23:00,VALID,916.443,VALID,0,VALID,98.1691,VALID,0.0849042,VALID,20.6955,VALID,30,VALID,0.319111,
2003-03-31, 03:24:01,VALID,916.438,VALID,0,VALID,98.2111,VALID,0.101885,VALID,20.6891,VALID,30,VALID,0.424805,
2003-03-31, 03:25:00,VALID,916.441,VALID,0,VALID,98.1933,VALID,0.101885,VALID,20.66,VALID,30,VALID,0.409152,
2003-03-31, 03:26:01,VALID,916.449,VALID,0,VALID,98.22,VALID,0.101885,VALID,20.6635,VALID,30,VALID,0.254856,
2003-03-31, 03:27:00,VALID,916.455,VALID,0,VALID,98.2429,VALID,0.0849042,VALID,20.6373,VALID,29,VALID,0.3125,
2003-03-31, 03:28:00,VALID,916.474,VALID,0,VALID,98.3268,VALID,0.0849042,VALID,20.6309,VALID,28,VALID,0.300223,
2003-03-31, 03:29:01,VALID,916.463,VALID,0,VALID,98.4311,VALID,0.101885,VALID,20.6376,VALID,23,VALID,0.385617,
2003-03-31, 03:30:01,VALID,916.458,VALID,0,VALID,98.5239,VALID,0.0679233,VALID,20.6473,VALID,22,VALID,0.271959,
2003-03-31, 03:31:01,VALID,916.45,VALID,0,VALID,98.6333,VALID,0.101885,VALID,20.6605,VALID,22,VALID,0.187706,
2003-03-31, 03:32:00,VALID,916.448,VALID,0,VALID,98.6676,VALID,0.0849042,VALID,20.6764,VALID,22,VALID,0.0803571,
2003-03-31, 03:33:00,VALID,916.462,VALID,0,VALID,98.6129,VALID,0.0849042,VALID,20.6575,VALID,22,VALID,0.0566907,
2003-03-31, 03:34:01,VALID,916.461,VALID,0,VALID,98.6206,VALID,0.0679233,VALID,20.6379,VALID,22,VALID,0,
2003-03-31, 03:35:00,VALID,916.469,VALID,0,VALID,98.6409,VALID,0.101885,VALID,20.6414,VALID,22,VALID,0.128689,
2003-03-31, 03:36:00,VALID,916.476,VALID,0,VALID,98.6346,VALID,0.118866,VALID,20.6182,VALID,22,VALID,0.147821,
2003-03-31, 03:37:01,VALID,916.47,VALID,0,VALID,98.6702,VALID,0.101885,VALID,20.6053,VALID,10,VALID,0.292869,
2003-03-31, 03:38:00,VALID,916.474,VALID,0,VALID,98.7515,VALID,0.101885,VALID,20.618,VALID,5,VALID,0.25,